{"data":{"norad_id":48271,"intl_designator":"2021-034D","name":"TYVAK-182A","alt_names":[],"object_type":"PAYLOAD","status":"ACTIVE","operator":null,"country":"IT","launch_date":"2021-04-29","launch_site_code":"FRGUI","launch_vehicle":null,"mission":null,"orbit_class":"UNKNOWN","rcs_meters":null,"size_class":null,"mass_kg":null,"dimensions":null,"purposes":[],"wikipedia_slug":null,"has_3d_model":false,"image_url":null,"decayed_at":null,"tle_current":{"epoch":"2026-05-25T03:25:13.186272Z","epoch_age_seconds":62395,"freshness":"FRESH","line1":"1 48271U 21034D   26145.14251373  .00004271  00000+0  29782-3 0  9990","line2":"2 48271  97.5737 204.4629 0007271  60.8068 299.3885 15.05910760276366","mean_motion":15.0591076,"eccentricity":0.0007271,"inclination_deg":97.5737,"raan_deg":204.4629,"arg_perigee_deg":60.8068,"mean_anomaly_deg":299.3885,"bstar":0.00029782,"rev_number":27636,"period_min":95.623196158051,"perigee_km":543.67490252921,"apogee_km":553.74792549287,"semimajor_km":6926.848414011,"source":"CELESTRAK","updated_at":"2026-05-25T13:37:56.743932Z"}}}